STARLINK-33818, 63502

Orbit data source: Space-Track

STARLINK-33818, 63502 is a payload satellite owned by SpaceX/Seattle (US) in LEO that was launched on Mon, 07 Apr 2025 UTC via an FALCON 9 launch vehicle from the Air Force Western Test Range (AFWTR). Payload-class satellites include a variety of spacecraft equipped with specific instruments for various scientific and technological missions. These include communications satellites like Starlink; space stations such as the ISS; scientific satellites like the Hubble; Earth observation satellites from companies like Planet Labs, Umbra, and HawkEye 360; GPS; miniature CubeSats for education and research; and military/defense satellites.

Loading next visibility...
Identifier
63502, 2025-071K
Orbit
LEO
Country
Flag of USUS
Related business
Manufacturer
SpaceX/Seattle
Mission
Operational Commercial Communications
Bus & Motor
STARLINK V2MO, Unknown motor
Mass
575 kg wet, ~530 kg dry
Launch date (UTC)
2025-04-07 (1 year ago)
Launch vehicle
FALCON 9
Launch site
Air Force Western Test Range (AFWTR)
Object type
Payload
Rocket body
Debris
Shape & HBR
Box + 2 Pan, 17.7 m
Radar Cross Section
36.964 m², Large (>1 m²)

Expand to show TLE details & history
Last TLE update: 6 days ago

TLE from 6 days ago
0 STARLINK-33818
1 63502U 25071K   26155.11233734  .00023981  00000-0  81863-3 0  9996
2 63502  53.1596  98.3519 0001158  79.2315 280.8816 15.30221557 66000
Epoch: 2026-06-04T02:41Z
TLE epoch observation values (Epoch: 2026-06-04T02:41:45.946Z)
Latitude
-0.00001°
Longitude
165.34917°
Altitude
475.901 km
Speed
7.629 km/s
True Right ascension
06h 33m 24s
True Declination
0° 00' 00"
Sunlit
Object was in daylight at epoch
Visualization orbit readout
Latitude
Unknown
Longitude
Unknown
Altitude
Unknown
Speed
Unknown
Apparent Right ascension
Unknown
Apparent Declination
Unknown
Sunlit
N/A
Visualization observer readout
Local Sidereal Time
13:37:40
Azimuth
Unknown
Elevation
Unknown
Doppler factor
Unknown
Orbital elements
Apogee altitude
476.201 km
Perigee altitude
474.614 km
Semi-major axis
6,853.544 km
Eccentricity
0.00012
Inclination
53.1596°
RAAN
98.3519°
Arg. of periapsis
79.2315°
True anomaly
280.86857°
Mean anomaly
280.8816°
Eccentric anomaly
280.87508°
Mean motion
3.82534 °/min
Orbital period
94.11 mins
BSTAR
0.00081863
Loading maneuver chart data...
Computing Atmospheric mass density...
Loading historical data...
Loading historical data...
Loading historical data...
Loading historical data...
Loading historical data...
Loading historical data...
Loading historical data...

Documentation

Showing up to 5 results
|